Regional Weather Roundup
Issued by NWS

Home | Current Version | Previous Version | Graphics & Text | Print | Product List | Glossary Off
Versions: 1 2 3 4 5 6 7 8 9 10 11 12 13 14 15 16 17 18 19 20 21 22 23 24 25 26 27 28 29 30 31 32 33 34 35 36 37 38 39 40 41 42 43 44 45 46 47 48 49 50

000
ASUS43 KDTX 291510
RWRMI
MICHIGAN HOURLY REGIONAL WEATHER ROUNDUP
NATIONAL WEATHER SERVICE DETROIT/PONTIAC MI
1100 AM EDT MON AUG 29 2016

NOTE: "FAIR" INDICATES FEW OR NO CLOUDS BELOW 12,000 FEET WITH NO
SIGNIFICANT WEATHER AND/OR OBSTRUCTION TO VISIBILITY.

MIZ047>049-052>055-059>063-066>070-074>076-081>083-291600-
SOUTHEAST LOWER MICHIGAN

CITY           SKY/WX    TMP DP  RH WIND       PRES   REMARKS
ADRIAN         SUNNY     76  68  76 E9        30.29S
ALMA           CLOUDY    70  70 100 E5        30.31R
ANN ARBOR      SUNNY     76  67  73 NE6       30.29R
BAD AXE        SUNNY     69  68  97 NE5       30.31F
CARO           SUNNY     74  67  77 CALM      30.29S
DETROIT CITY   SUNNY     76  65  68 E7        30.29S
DETROIT        MOSUNNY   76  64  66 E8        30.29S
FLINT          PTSUNNY   77  67  71 VRB5      30.30S
GROSSE ILE     SUNNY     76  65  69 E6        30.28R
HILLSDALE      SUNNY     76  68  76 E8        30.29S
HOWELL         MOSUNNY   72  70  94 E6        30.30S

CITY           SKY/WX    TMP DP  RH WIND       PRES   REMARKS
JACKSON        SUNNY     76  67  73 E8        30.29S
LAMBERTVILLE   SUNNY     78  67  70 E6        30.28S
LANSING        SUNNY     74  65  73 E8        30.30S
LAPEER         FAIR      74  65  74 CALM      30.31R
MASON          SUNNY     74  66  75 E6        30.30R
MONROE         SUNNY     76  67  71 E8        30.28R
MT. CLEMENS    MOSUNNY   74  67  78 E9        30.28S
PONTIAC        PTSUNNY   74  65  73 E6        30.30R
PORT HURON     SUNNY     73  66  78 N6        30.29F
TRI CITIES     MOSUNNY   74  67  78 E7        30.31R
MIDLAND        PTSUNNY   74  66  76 E6        30.29S
TROY           SUNNY     76  63  63 NE7       30.31S
SAGINAW HB     MOSUNNY   73  64  73 E3        30.29S
$$
MIZ043>046-050>051-056>058-064>065-071>073-077>080-291600-
SOUTHWEST LOWER MICHIGAN

CITY           SKY/WX    TMP DP  RH WIND       PRES   REMARKS
BATTLE CREEK   MOSUNNY   75  66  73 SE10      30.29R
BENTON HARBOR  SUNNY     81  70  69 SE8       30.25S
BIG RAPIDS     CLOUDY    69  67  95 E3        30.29F
COLDWATER      SUNNY     77  69  76 SE7       30.28S
FREMONT        FAIR      71  66  83 E5        30.28S
HOLLAND        MOSUNNY   78  69  73 SE7       30.27S
GRAND RAPIDS   MOSUNNY   75  67  76 E7        30.29R
IONIA          CLOUDY    69  67  96 E3        30.29S
KALAMAZOO      SUNNY     79  68  69 SE6       30.28R
LUDINGTON      MOSUNNY   74  67  78 SE3       30.26F
MARSHALL       SUNNY     77  66  69 E8        30.28S
MOUNT PLEASANT CLOUDY    69  68  94 SE5       30.30R
MUSKEGON       SUNNY     78  68  71 E9        30.27R
SOUTH HAVEN    SUNNY     80  71  74 E7        30.26R
$$
MIZ016>042-291600-
NORTHERN LOWER MICHIGAN

CITY           SKY/WX    TMP DP  RH WIND       PRES   REMARKS
ALPENA         SUNNY     72  59  63 SE3       30.31F
BEAVER ISLAND  MOSUNNY   71  62  71 SE6       30.29S
BELLAIRE       SUNNY     74  60  62 CALM      30.29S
CADILLAC       MOSUNNY   70  63  80 SE6       30.30F
CHARLEVOIX     MOSUNNY   71  60  69 SE5       30.32S
FRANKFORT      CLOUDY    74  63  68 S3        30.27S
GAYLORD        SUNNY     70  56  61 S7        30.32S
GRAYLING       CLOUDY    73  62  66 E6        30.31F
HARBOR SPRINGS MOSUNNY   71  59  66 E6        30.30R
HOUGHTON LAKE  CLOUDY    71  64  78 S7        30.32S
MANISTEE       CLOUDY    75  66  73 VRB5      30.27S
OSCODA         SUNNY     71  59  66 SE3       30.31S
PELLSTON       SUNNY     71  59  65 E3        30.31S
ROGERS CITY    SUNNY     69  60  72 CALM      30.32S
TRAVERSE CITY  CLOUDY    76  62  62 SE6       30.27S
$$
MIZ007>008-015-291600-
EASTERN UPPER MICHIGAN

CITY           SKY/WX    TMP DP  RH WIND       PRES   REMARKS
KINROSS        SUNNY     68  60  75 SE8       30.31S
MACKINAC ISLAN SUNNY     67  56  66 CALM      30.31S
NEWBERRY       SUNNY     69  60  73 SE8       30.29F
S. S. MARIE    SUNNY     68  58  70 SE6       30.30S
$$
MIZ004>006-011>014-085-291600-
CENTRAL UPPER MICHIGAN

CITY           SKY/WX    TMP DP  RH WIND       PRES   REMARKS
MANISTIQUE     PTSUNNY   71  67  89 SE7       30.28S
ESCANABA       CLOUDY    71  65  81 S6        30.26F
MENOMINEE      MOSUNNY  N/A N/A N/A S6        30.27S
SAWYER-GWINN   MOSUNNY   68  63  83 S15G21    30.26F
$$
MIZ001>003-009>011-084-291600-
WESTERN UPPER MICHIGAN

CITY           SKY/WX    TMP DP  RH WIND       PRES   REMARKS
IRON MOUNTAIN  CLOUDY    70  62  76 SE8       30.25F
HOUGHTON       CLOUDY    69  65  86 S12       30.14F
IRONWOOD       CLOUDY    72  63  73 W9        30.18R
$$

ABBREVIATIONS USED IN REMARKS
   TC - TEMPERATURE IN CELSIUS
  WCI - WIND CHILL INDEX
   HX - HEAT INDEX
  VSB - VISIBILITY




USA.gov is the U.S. government's official web portal to all federal, state and local government web resources and services.